[[{"header":{"parameterUnit":"m.s-1","parameterCategory":1,"la1":30.2991,"la2":30.254,"lo1":-89.0895,"lo2":-89.0444,"dy":0.0017,"dx":0.0017,"nx":28,"ny":28,"refTime":"2025-05-29T09:00:00:Z","depth":0,"parameterNumber":2,"parameterNumberName":"U-component_of_WINDS"},"data":[0,0,0,0,0,0,0,0,0,0,0,0,0,0,0,0,0,0,0,0,0,0,0,0,0,0,0,0,0,0,0,0,0,0,0,0,0,0,0,0,0,0,0,0,0,0,0,0,0,0,0,0,0,0,0,0,0,0,0.8024,0.8024,0,0.7993,0.7992,0.7992,0.7991,0.7991,0.7992,0.7992,0.7955,0.7954,0.7952,0,0,0,0,0,0,0,0,0,0,0,0,0,0.8078,0.8077,0.8024,0.8024,0.8023,0.7993,0.7992,0.7992,0.7991,0.7991,0.7992,0.7992,0.7955,0.7954,0.7952,0,0,0,0,0,0,0,0,0,0,0,0,0,0.8051,0.8077,0.8024,0.8019,0.8018,0.7993,0.7992,0.7992,0.7991,0.7991,0.7992,0.7992,0.7956,0.7954,0.7952,0.7928,0,0,0.7946,0.7945,0,0,0,0,0,0,0,0,0.8053,0.8049,0.802,0.8019,0.8019,0.7996,0.7998,0.797,0.799,0.8001,0.7992,0.7993,0.7968,0.7965,0.7958,0.7926,0.7925,0.7946,0.7944,0.7943,0.7943,0,0,0,0,0,0,0,0.8055,0.8051,0.8012,0.802,0.8019,0.8017,0.8014,0.7993,0.7981,0.8,0.8,0.7997,0.7968,0.796,0.7957,0.7924,0.7946,0.7944,0.7943,0.7942,0.787,0.7869,0,0,0,0,0,0,0.8058,0.8052,0.8013,0.8011,0.8038,0.8015,0.8012,0.8003,0.7982,0.7979,0.7996,0.7997,0.7963,0.7959,0.7955,0.7925,0.7944,0.7942,0.794,0.787,0.787,0.7869,0,0,0,0,0,0,0.8059,0.8055,0.8014,0.8031,0.8026,0.8014,0.8004,0.8002,0.7994,0.7979,0.7976,0.799,0.7963,0.7958,0.7935,0.7924,0.7941,0.7939,0.7871,0.787,0.7869,0.7864,0,0,0,0,0,0,0.8061,0.8055,0.8047,0.8031,0.8025,0.7995,0.8003,0.8001,0.7991,0.7992,0.7973,0.797,0.7963,0.7938,0.7933,0.7921,0.7937,0.7872,0.7871,0.7869,0.7865,0.7863,0.7861,0,0,0,0,0,0.8063,0.8046,0.8047,0.8042,0.8015,0.7995,0.7991,0.7985,0.799,0.7981,0.7971,0.7971,0.7926,0.7935,0.793,0.7917,0.7873,0.7871,0.787,0.7866,0.7863,0.7861,0,0,0,0,0,0,0.8059,0.8044,0.8044,0.8022,0.801,0.7995,0.7983,0.7982,0.7967,0.7968,0.7959,0.7955,0.7931,0.7922,0.7933,0.7892,0.79,0.7897,0.7899,0.7896,0.7894,0.7896,0.7936,0,0,0,0,0,0.8056,0.8042,0.8029,0.8011,0.8005,0.7995,0.7986,0.7982,0.7968,0.7963,0.7951,0.7936,0.7919,0.7907,0.789,0.7864,0.7859,0.7853,0.7851,0.7849,0.7846,0.783,0.7827,0.7864,0.7864,0.7864,0,0,0.8049,0.8039,0.803,0.801,0.8,0.7984,0.799,0.7974,0.7961,0.796,0.7937,0.7928,0.791,0.7885,0.7874,0.7877,0.7835,0.7847,0.7846,0.7844,0.7828,0.7825,0.7821,0.7862,0.7863,0.7863,0,0,0.8027,0.8019,0.8003,0.7993,0.7978,0.7972,0.7968,0.7953,0.7947,0.7924,0.7922,0.7907,0.7877,0.7865,0.7855,0.7828,0.7827,0.7823,0.7812,0.7796,0.7793,0.7791,0.778,0.7776,0.7821,0.7821,0.7821,0,0.8019,0.7997,0.7994,0.7977,0.7967,0.7967,0.7949,0.7939,0.7919,0.7911,0.7916,0.7878,0.7867,0.7838,0.7832,0.7824,0.7818,0.7825,0.7794,0.7792,0.7789,0.7778,0.7774,0.782,0.782,0.782,0.782,0,0.7988,0.7972,0.7961,0.7943,0.7932,0.7915,0.7907,0.7896,0.7893,0.7886,0.7862,0.7848,0.7828,0.7821,0.7818,0.7791,0.7794,0.7797,0.7804,0.7785,0.7775,0.7771,0.782,0.782,0.782,0.782,0,0,0.7962,0.7943,0.7939,0.793,0.7914,0.7901,0.7883,0.7865,0.7855,0.7841,0.7825,0.78,0.7802,0.7791,0.7786,0.7773,0.7751,0.7777,0.7776,0.7771,0.7719,0.7715,0.7711,0.775,0.775,0.7749,0.7719,0,0.7938,0.7908,0.7904,0.7876,0.7861,0.786,0.7844,0.7832,0.7824,0.7809,0.78,0.7782,0.7788,0.778,0.7767,0.7756,0.774,0.7759,0.7732,0.7732,0.7735,0.7706,0.7703,0.7675,0.7716,0.7715,0.7714,0,0.7905,0.7892,0.7863,0.7849,0.7842,0.7828,0.7811,0.7797,0.7782,0.7777,0.7765,0.7762,0.7741,0.7751,0.7721,0.7734,0.7723,0.7716,0.7714,0.771,0.7721,0.7699,0.7667,0.7662,0.7708,0.7709,0.7709,0,0.7887,0.7862,0.7841,0.7834,0.7818,0.7807,0.78,0.7786,0.7775,0.7759,0.7752,0.7733,0.7723,0.7708,0.7699,0.7707,0.7669,0.7678,0.7663,0.7663,0.7653,0.7654,0.7617,0.7649,0.7649,0.765,0.765,0,0.7859,0.7841,0.7833,0.782,0.78,0.7795,0.7774,0.7766,0.7754,0.7738,0.7736,0.7721,0.7711,0.7694,0.7687,0.7662,0.7658,0.7652,0.765,0.7651,0.7652,0.7643,0.7643,0.7648,0.7649,0.7649,0.7649,0,0.7835,0.7829,0.7806,0.7793,0.7789,0.7774,0.7761,0.7748,0.7741,0.7721,0.7716,0.7704,0.7684,0.7674,0.7649,0.7644,0.7615,0.7615,0.7621,0.7619,0.7604,0.7605,0.7558,0.7551,0.759,0.759,0.759,0,0.7817,0.7803,0.7788,0.7779,0.7771,0.7755,0.7744,0.7739,0.7727,0.7709,0.7697,0.7677,0.7661,0.7628,0.7616,0.7596,0.7594,0.758,0.7591,0.7592,0.7592,0.7592,0.759,0.7577,0.7576,0.7576,0.7576,0,0.7784,0.7782,0.7768,0.7752,0.774,0.7727,0.7714,0.7706,0.7698,0.7684,0.7665,0.7652,0.7627,0.7606,0.7585,0.7575,0.7573,0.7573,0.7568,0.7568,0.757,0.7567,0.7613,0.7573,0.7573,0.7574,0.7574,0.7574,0.7761,0.7749,0.7737,0.772,0.771,0.7698,0.7685,0.7677,0.7661,0.7641,0.7638,0.7616,0.76,0.7573,0.7562,0.7543,0.7546,0.7539,0.7537,0.7535,0.7533,0.7575,0.7539,0.7539,0.754,0.754,0.754,0,0.7727,0.772,0.7705,0.7688,0.7674,0.7677,0.7662,0.765,0.7632,0.7618,0.7603,0.7579,0.7559,0.7546,0.7525,0.7512,0.7511,0.7507,0.7506,0.7504,0.7533,0.7538,0.7508,0.7508,0.7508,0.7508,0.7508,0.7508,0.7708,0.7687,0.7683,0.7656,0.7648,0.7628,0.762,0.7608,0.7597,0.7571,0.7555,0.7547,0.7533,0.7511,0.7492,0.7489,0.748,0.7476,0.7472,0.7499,0.7502,0.7505,0.751,0.7474,0.7474,0.7444,0.7444,0.7443]},{"header":{"parameterUnit":"m.s-1","parameterCategory":1,"la1":30.2991,"la2":30.254,"lo1":-89.0895,"lo2":-89.0444,"dy":0.0017,"dx":0.0017,"nx":28,"ny":28,"refTime":"2025-05-29T09:00:00:Z","depth":0,"parameterNumber":3,"parameterNumberName":"V-component_of_WINDS"},"data":[0,0,0,0,0,0,0,0,0,0,0,0,0,0,0,0,0,0,0,0,0,0,0,0,0,0,0,0,0,0,0,0,0,0,0,0,0,0,0,0,0,0,0,0,0,0,0,0,0,0,0,0,0,0,0,0,0,0,-0.2015,-0.2015,0,-0.1965,-0.1965,-0.1964,-0.1983,-0.1984,-0.1986,-0.1987,-0.1932,-0.193,-0.1927,0,0,0,0,0,0,0,0,0,0,0,0,0,-0.2127,-0.2125,-0.2015,-0.2015,-0.2014,-0.1965,-0.1965,-0.1964,-0.1983,-0.1985,-0.1986,-0.1987,-0.1933,-0.193,-0.1927,0,0,0,0,0,0,0,0,0,0,0,0,0,-0.2078,-0.2124,-0.2015,-0.2018,-0.2018,-0.1965,-0.1964,-0.1964,-0.1983,-0.1985,-0.1986,-0.1988,-0.1934,-0.1931,-0.1927,-0.1868,0,0,-0.1915,-0.1914,0,0,0,0,0,0,0,0,-0.208,-0.2074,-0.2018,-0.2018,-0.2017,-0.1982,-0.1984,-0.1932,-0.1982,-0.1996,-0.1987,-0.1989,-0.1947,-0.1943,-0.1929,-0.1866,-0.1863,-0.1915,-0.1913,-0.1911,-0.191,0,0,0,0,0,0,0,-0.2084,-0.2076,-0.1995,-0.2017,-0.2017,-0.2021,-0.2016,-0.1974,-0.1962,-0.1995,-0.1996,-0.199,-0.1947,-0.1933,-0.1928,-0.1863,-0.1915,-0.1912,-0.1909,-0.1908,-0.1751,-0.1749,0,0,0,0,0,0,-0.2088,-0.2079,-0.1997,-0.1994,-0.2054,-0.2018,-0.2012,-0.1992,-0.1963,-0.196,-0.1989,-0.1991,-0.1939,-0.1933,-0.1926,-0.1858,-0.1911,-0.1907,-0.1905,-0.1753,-0.1751,-0.1749,0,0,0,0,0,0,-0.209,-0.208,-0.1999,-0.2037,-0.2027,-0.2014,-0.1991,-0.199,-0.1975,-0.1958,-0.1956,-0.1976,-0.194,-0.1932,-0.1883,-0.1856,-0.1906,-0.1902,-0.1755,-0.1752,-0.175,-0.1719,0,0,0,0,0,0,-0.2093,-0.2081,-0.2059,-0.2036,-0.2025,-0.1957,-0.1989,-0.1988,-0.1969,-0.1972,-0.1946,-0.1943,-0.194,-0.1889,-0.188,-0.1852,-0.1899,-0.1758,-0.1754,-0.1751,-0.1722,-0.1715,-0.171,0,0,0,0,0,-0.2097,-0.2051,-0.2057,-0.2047,-0.1996,-0.1955,-0.1949,-0.1948,-0.1967,-0.1944,-0.1934,-0.1944,-0.1861,-0.1884,-0.1873,-0.1844,-0.1759,-0.1755,-0.1751,-0.1725,-0.1717,-0.171,0,0,0,0,0,0,-0.2069,-0.2048,-0.2055,-0.2,-0.198,-0.1959,-0.193,-0.1938,-0.1911,-0.1915,-0.1913,-0.1907,-0.1858,-0.1846,-0.1872,-0.1787,-0.1813,-0.1806,-0.1797,-0.1789,-0.1782,-0.1787,-0.1896,0,0,0,0,0,-0.2057,-0.2026,-0.2008,-0.1962,-0.1951,-0.1943,-0.1924,-0.1926,-0.1904,-0.1895,-0.1881,-0.1859,-0.1828,-0.1808,-0.1778,-0.1721,-0.1716,-0.1696,-0.1689,-0.1684,-0.1678,-0.165,-0.1641,-0.1735,-0.1735,-0.1735,0,0,-0.203,-0.2015,-0.1995,-0.1956,-0.194,-0.1908,-0.1935,-0.1899,-0.1876,-0.1889,-0.1844,-0.1833,-0.1808,-0.1756,-0.1732,-0.1744,-0.1652,-0.1679,-0.1675,-0.1672,-0.1644,-0.1635,-0.1628,-0.1732,-0.1732,-0.1733,0,0,-0.1966,-0.1951,-0.1911,-0.1896,-0.1872,-0.1867,-0.1858,-0.1836,-0.183,-0.1785,-0.1795,-0.1767,-0.1713,-0.1696,-0.168,-0.1612,-0.1621,-0.1603,-0.1569,-0.1541,-0.1534,-0.1527,-0.1505,-0.1496,-0.1597,-0.1597,-0.1597,0,-0.1936,-0.1889,-0.189,-0.1854,-0.1837,-0.185,-0.181,-0.1795,-0.1762,-0.175,-0.1765,-0.17,-0.1684,-0.1629,-0.1613,-0.1599,-0.1589,-0.1606,-0.1535,-0.1528,-0.1522,-0.1501,-0.1492,-0.1595,-0.1595,-0.1595,-0.1596,0,-0.1854,-0.1821,-0.1792,-0.1763,-0.1742,-0.1704,-0.17,-0.1679,-0.1683,-0.1676,-0.1631,-0.1613,-0.1581,-0.1568,-0.1569,-0.1513,-0.1522,-0.1535,-0.1561,-0.1511,-0.1491,-0.1483,-0.1592,-0.1593,-0.1593,-0.1594,0,0,-0.1769,-0.1743,-0.1732,-0.172,-0.1697,-0.1671,-0.1635,-0.1605,-0.1588,-0.1566,-0.1536,-0.1491,-0.1505,-0.1487,-0.1487,-0.1462,-0.1412,-0.1479,-0.1479,-0.1469,-0.1352,-0.1343,-0.1333,-0.1418,-0.1417,-0.1415,-0.1354,0,-0.1705,-0.1642,-0.1643,-0.1585,-0.1556,-0.1568,-0.1537,-0.1519,-0.1512,-0.1486,-0.1479,-0.1448,-0.1467,-0.1457,-0.1433,-0.1424,-0.1389,-0.1428,-0.1391,-0.139,-0.1398,-0.1322,-0.1312,-0.1255,-0.1346,-0.1345,-0.1344,0,-0.162,-0.1598,-0.1537,-0.152,-0.1508,-0.148,-0.1454,-0.1429,-0.1409,-0.1406,-0.1388,-0.1393,-0.1357,-0.1384,-0.1334,-0.1361,-0.1346,-0.1339,-0.1337,-0.1334,-0.1364,-0.1318,-0.1236,-0.1228,-0.1331,-0.1332,-0.1333,0,-0.1567,-0.1521,-0.148,-0.1469,-0.1447,-0.1427,-0.1417,-0.14,-0.1383,-0.136,-0.1349,-0.1322,-0.1307,-0.1286,-0.1284,-0.1303,-0.1235,-0.1261,-0.1232,-0.1232,-0.1217,-0.1218,-0.1133,-0.1205,-0.1206,-0.1206,-0.1206,0,-0.1495,-0.1458,-0.1456,-0.143,-0.1389,-0.1391,-0.135,-0.1342,-0.1327,-0.13,-0.1309,-0.1284,-0.1282,-0.1256,-0.1254,-0.1215,-0.1207,-0.1205,-0.1205,-0.1204,-0.1205,-0.1195,-0.1199,-0.1203,-0.1204,-0.1204,-0.1205,0,-0.1428,-0.1425,-0.1381,-0.1366,-0.1361,-0.1332,-0.1318,-0.1294,-0.1289,-0.1256,-0.1248,-0.124,-0.1211,-0.1207,-0.1171,-0.117,-0.1123,-0.1126,-0.113,-0.1131,-0.1103,-0.1106,-0.1009,-0.0997,-0.1076,-0.1076,-0.1075,0,-0.1383,-0.1355,-0.1337,-0.1321,-0.1311,-0.1283,-0.1267,-0.1268,-0.125,-0.1228,-0.1207,-0.1178,-0.1156,-0.1108,-0.1099,-0.1073,-0.1076,-0.1044,-0.1072,-0.1074,-0.1078,-0.108,-0.1078,-0.1039,-0.1038,-0.1037,-0.1037,0,-0.1304,-0.1304,-0.128,-0.1257,-0.1237,-0.1218,-0.12,-0.1186,-0.1185,-0.1165,-0.1135,-0.1118,-0.1084,-0.1056,-0.1031,-0.102,-0.1029,-0.1028,-0.102,-0.102,-0.1024,-0.1023,-0.1117,-0.103,-0.1031,-0.1031,-0.1032,-0.1032,-0.1247,-0.1224,-0.1209,-0.1182,-0.117,-0.1153,-0.1131,-0.1124,-0.11,-0.1073,-0.1075,-0.1044,-0.1027,-0.0994,-0.0982,-0.0958,-0.0968,-0.0956,-0.0953,-0.0951,-0.0949,-0.1028,-0.0953,-0.0953,-0.0953,-0.0953,-0.0953,0,-0.1169,-0.1161,-0.1137,-0.1113,-0.1093,-0.1104,-0.1085,-0.1067,-0.104,-0.1024,-0.1003,-0.097,-0.0944,-0.0934,-0.0908,-0.0891,-0.0894,-0.0884,-0.0886,-0.0884,-0.094,-0.095,-0.0882,-0.0882,-0.0882,-0.0882,-0.0882,-0.0882,-0.1127,-0.1089,-0.1088,-0.1044,-0.1036,-0.1006,-0.0995,-0.098,-0.0968,-0.0932,-0.0911,-0.0905,-0.0892,-0.0866,-0.0843,-0.0841,-0.0832,-0.082,-0.082,-0.0872,-0.088,-0.0886,-0.0896,-0.0818,-0.0818,-0.0766,-0.0765,-0.0765]}]]